Regional Weather Roundup
Issued by NWS Little Rock, AR

Home | Current Version | Previous Version | Text Only | Print | Product List | Glossary On
Versions: 1 2 3 4 5 6 7 8 9 10 11 12 13 14 15 16 17 18 19 20 21 22 23 24 25 26 27 28 29 30 31 32
000
ASUS44 KLZK 122005
RWRLZK

WEATHER ROUNDUP FOR ARKANSAS
NATIONAL WEATHER SERVICE LITTLE ROCK AR
200 PM CST TUE DEC 12 2017

NOTE: "FAIR" INDICATES FEW OR NO CLOUDS BELOW 12,000 FEET WITH NO
SIGNIFICANT WEATHER AND/OR OBSTRUCTIONS TO VISIBILITY.

ARZ001-003-010-029-122100-
NORTHWEST ARKANSAS

CITY           SKY/WX    TMP DP  RH WIND       PRES   REMARKS
FAYETTEVILLE   SUNNY     44  11  26 NW12      30.26F
FORT SMITH     SUNNY     50  14  23 W14G23    30.28F
HARRISON       SUNNY     42  12  29 W13       30.22F
BENTONVILLE    SUNNY     41  10  28 W12       30.27F
ROGERS         SUNNY     41   8  25 NW7       30.25F
SILOAM SPGS    SUNNY     43   8  23 NW8       30.27F
HIGHFILL       SUNNY     43  10  26 NW10      30.25F
SPRINGDALE     SUNNY     43  10  26 NW8       30.26F
$$

ARZ004-005-016-122100-
NORTH CENTRAL ARKANSAS

CITY           SKY/WX    TMP DP  RH WIND       PRES   REMARKS
BATESVILLE     SUNNY     47  14  26 NW9       30.21F
FLIPPIN        SUNNY     44  13  28 NW13      30.23F
MTN HOME       SUNNY     43  11  27 VRB6      30.21F
$$

ARZ040-041-122100-
WEST CENTRAL ARKANSAS

CITY           SKY/WX    TMP DP  RH WIND       PRES   REMARKS
MENA           SUNNY     54  12  19 W9        30.24F
MOUNT IDA      SUNNY     52  14  22 NW6       30.21F
$$

ARZ009-017-025-026-028-122100-
NORTHEAST ARKANSAS

CITY           SKY/WX    TMP DP  RH WIND       PRES   REMARKS
JONESBORO      SUNNY     45  21  38 NW9       30.19F
NEWPORT        SUNNY     46  16  30 NW10      30.21F
WALNUT RIDGE   SUNNY     45  13  27 NW12G22   30.20F
BLYTHEVILLE    MOSUNNY   49  25  39 N14G21    30.19F
NW BLYTHEVILLE SUNNY     45  21  39 NW14G22   30.19
$$

ARZ022-023-033-042-044-122100-
CENTRAL ARKANSAS

CITY           SKY/WX    TMP DP  RH WIND       PRES   REMARKS
LITTLE ROCK    SUNNY     51  15  23 W12       30.21F
N LITTLE ROCK    N/A     50  17  26 N6        30.23F
JACKSONVILLE   SUNNY     53  14  21 NW10      30.20F
SEARCY         SUNNY     51  16  24 NW9       30.21F
HOT SPRINGS    SUNNY     54  16  22 W9G18     30.23F
RUSSELLVILLE   SUNNY     49  16  26 W15       30.24F
CLINTON        FAIR      48  16  27 W6G15     30.23F
$$

ARZ036-122100-
EAST ARKANSAS

CITY           SKY/WX    TMP DP  RH WIND       PRES   REMARKS
WEST MEMPHIS   SUNNY     46  27  47 N10G20    30.18F
$$

ARZ050-053-066-070-073-122100-
SOUTHWEST ARKANSAS

CITY           SKY/WX    TMP DP  RH WIND       PRES   REMARKS
ARKADELPHIA    FAIR      56  18  22 NW6       30.23F
CAMDEN         SUNNY     59  16  18 NW5G13    30.22F
TEXARKANA      SUNNY     54  17  23 W10       30.25F
EL DORADO      SUNNY     56  22  26 NW8       30.23F
DE QUEEN       SUNNY     56  14  19 NW12G18   30.25F
$$

ARZ056-057-069-122100-
SOUTHEAST ARKANSAS

CITY           SKY/WX    TMP DP  RH WIND       PRES   REMARKS
PINE BLUFF     SUNNY     52  18  26 N10       30.21F
STUTTGART      SUNNY     51  16  24 N13       30.21F
MONTICELLO     SUNNY     55  16  21 NW5       30.20F

$$






USA.gov is the U.S. government's official web portal to all federal, state and local government web resources and services.